Location: Mogelsberg
(47.3622°N, 9.1354°E)
Time: 22:06:17
(UTC+00:00)

Daily predictions for brighter satellites

Satellite Brightness Start Highest point End
(mag) Time Altitude Azimuth Time Altitude Azimuth Time Altitude Azimuth
Cosmos 1726 Rocket 3.6 18:44:10 10° S 18:48:29 63° E 18:52:48 10° NNE
COSMOS 2428 3.0 18:44:09 10° NNW 18:49:50 57° ENE 18:55:28 10° SE
Cosmos 2228 3.2 18:46:27 10° S 18:50:48 83° W 18:55:08 10° N
ERS-2 2.1 18:50:00 10° NNE 18:53:39 86° E 18:57:18 10° SSW
Cosmos 2333 4.3 18:47:58 10° NNW 18:53:47 86° WSW 18:59:31 10° SSE
SAR-Lupe-4 3.8 18:51:47 10° NNE 18:55:24 78° WNW 18:58:58 10° SSW
Cosmos 2058 3.6 18:51:38 10° N 18:55:33 37° ENE 18:59:25 10° SE
Cosmos 1833 4.4 18:50:31 10° SSW 18:56:09 80° WNW 19:01:51 10° NNE
Cosmos 2219 Rocket 2.2 18:53:14 10° NNW 18:58:57 76° ENE 19:04:38 10° SSE
USA-17 4.3 18:58:30 10° SW 19:02:20 80° SE 19:05:29 10° NE
Cosmos 1455 2.4 18:58:53 10° SSE 19:02:29 47° E 19:06:05 10° NNE
ATLAS 5 CENTAUR R/B 3.9 19:00:28 10° W 19:03:58 25° NNW 19:07:53 10° NNE
OBJECT-B 0.7 19:02:52 10° SSE 19:06:03 75° ENE 19:09:18 10° N
CZ-4C R/B 3.5 19:01:26 10° WSW 19:06:20 44° NW 19:12:16 10° NE
Abrixas rocket 2.6 19:05:43 10° SSW 19:06:59 16° SSE 19:07:21 15° SE
NOSS 3-4 (A) 4.0 19:04:52 10° SW 19:10:41 64° NW 19:17:01 10° NE
NOSS 3-4 (C) 3.9 19:04:57 10° SW 19:10:47 65° NW 19:17:08 10° NE
Cosmos 405 2.9 19:11:48 10° S 19:15:15 89° WNW 19:18:46 10° N
Cosmos 2058 Rocket 3.0 19:12:49 10° S 19:17:10 77° E 19:21:32 10° NNE
Meteor 2-10 Rocket 3.8 19:13:42 10° SSW 19:18:56 78° WNW 19:24:27 10° N
Cosmos 1953 Rocket 4.2 19:15:37 10° NNW 19:19:54 56° W 19:24:08 10° S
Cosmos 405 Rocket 3.3 19:17:36 10° N 19:21:27 42° ENE 19:24:34 14° SE
Cosmos 1076 Rocket 4.1 19:18:00 10° N 19:22:05 38° ENE 19:25:22 14° SE
ATLAS 2AS CENTAUR R/B 3.2 19:16:17 10° SW 19:24:13 82° NW 19:32:02 10° NE
Lacrosse 5 rocket 3.5 19:21:47 10° WNW 19:25:15 26° NNW 19:28:54 10° NE
USA 186 3.4 19:24:01 10° SSW 19:26:59 34° W 19:29:51 10° NNW
Cosmos 2237 Rocket 2.8 19:21:49 10° NNW 19:27:13 43° NE 19:31:22 16° ESE
Cosmos 2251 Rocket 3.5 19:22:50 10° S 19:28:07 63° ESE 19:33:25 10° NNE
Cosmos 389 Rocket 3.2 19:26:00 13° SSE 19:28:40 32° E 19:31:52 10° NNE
NOSS 0 Rocket 4.0 19:23:59 10° NNW 19:30:12 69° ENE 19:35:24 15° SE
Cosmos 1812 Rocket 4.4 19:27:04 13° SSE 19:30:28 32° E 19:34:26 10° NNE
Cosmos 1092 Rocket 4.2 19:24:49 10° NNW 19:31:05 74° W 19:37:14 10° S
Exosat Rocket 3.8 19:24:59 10° NNW 19:31:38 89° ENE 19:36:26 12° SSE
SJ-6B 3.7 19:32:18 10° S 19:35:53 45° W 19:39:31 10° NNW
Ariane Rocket 3.1 19:31:15 10° SSE 19:36:17 79° WSW 19:41:23 10° NNW
SPOT 3 Rocket 3.7 19:32:49 14° SE 19:37:09 57° ENE 19:42:14 10° N
IGS 5A 3.8 19:34:21 18° SE 19:37:09 46° ENE 19:41:08 10° N
BREEZE-M DEB (TANK) 2.4 19:34:49 10° SW 19:38:52 36° SSE 19:39:40 27° ESE
Resurs 01 Rocket 1.7 19:36:07 16° SSE 19:39:36 60° ENE 19:44:01 10° N
Cosmos 2292 Rocket 4.5 19:35:37 10° N 19:42:36 64° ENE 19:46:51 16° SSE
Cosmos 2227 Rocket 3.1 19:40:19 16° SE 19:43:24 26° ESE 19:48:00 10° NE
Resurs 1-3 3.9 19:44:16 10° S 19:48:37 67° WSW 19:53:01 10° NNW
Cosmos 1825 3.0 19:46:21 10° NNW 19:50:01 49° W 19:53:40 10° S
Cosmos 2297 Rocket 2.7 19:45:22 10° S 19:50:29 37° ESE 19:55:38 10° NE
Cosmos 1809 Rocket 4.5 19:44:57 10° N 19:51:02 66° ENE 19:55:44 17° SSE
Cosmos 2333 Rocket 3.5 19:47:56 10° NW 19:53:12 38° WSW 19:58:25 10° S
Cosmos 44 3.6 19:48:07 10° SW 19:53:15 80° NW 19:58:41 10° NE
Cosmos 614 Rocket 3.8 19:48:44 10° SSW 19:53:51 75° ESE 19:58:58 10° NNE
Cosmos 2219 3.7 19:49:44 10° S 19:54:46 36° ESE 19:59:51 10° NE
Cosmos 192 4.3 19:50:28 10° NNW 19:55:27 79° ENE 19:58:31 23° SSE
ATLAS 3B R/B 3.2 19:55:17 10° NW 20:02:12 61° WSW 20:07:47 18° SSE
FALCON 9 DEB 3.3 20:01:49 10° WSW 20:05:14 72° NNW 20:08:07 14° ENE
USA 215 3.3 20:00:59 22° ESE 20:05:28 77° NNE 20:12:01 10° NW
Cosmos 2279 Rocket 3.9 19:59:40 10° S 20:05:51 90° ESE 20:12:06 10° N
Genesis I 3.9 20:03:11 10° NNW 20:07:02 43° NE 20:08:23 31° E
Meteor 2-14 Rocket 4.4 20:03:37 10° N 20:09:43 75° E 20:13:37 23° SSE
IRIDIUM 104 4.3 20:05:52 11° S 20:10:53 89° W 20:16:10 10° N
SL-4 R/B 4.2 20:08:41 10° SSW 20:09:22 14° S 20:09:22 14° S
ERS-1 Rocket 3.6 20:14:28 30° ESE 20:16:09 39° ENE 20:20:47 10° N
Orbus 7S? 4.3 20:15:14 10° WSW 20:18:14 51° NNW 20:24:12 10° NE
Cosmos 407 Rocket 3.4 20:14:02 10° S 20:19:07 68° ESE 20:24:16 10° NNE
IRIDIUM 114 4.5 20:15:00 11° S 20:20:03 75° W 20:25:18 10° N
RESURS DK-1 4.1 20:16:35 10° WSW 20:20:22 35° NW 20:24:12 10° NNE
CZ-2C R/B 3.5 20:17:16 10° NNE 20:21:45 81° ESE 20:24:29 23° S
SL-16 R/B 2.8 20:16:34 10° NNW 20:22:00 43° NE 20:24:13 30° ESE
Cosmos 1980 3.8 20:17:08 10° NNW 20:22:49 74° WSW 20:25:48 29° SSE
Cosmos 1818 4.2 20:17:44 10° SW 20:23:06 59° NW 20:28:33 10° NNE
SPOT 5 3.2 20:28:33 39° ESE 20:29:32 46° ENE 20:34:05 10° N
Cosmos 2266 Rocket 4.0 20:24:19 10° N 20:30:46 83° E 20:34:06 30° SSE
Meteor 2-21 Rocket 4.3 20:25:39 10° N 20:31:44 85° E 20:34:50 31° SSE
ARIANE 5 R/B 2.5 20:32:24 49° SSE 20:33:33 77° ENE 20:37:57 10° N
COSMOS 2428 4.5 20:29:04 10° NW 20:33:44 26° WSW 20:38:22 10° SSW
Cosmos 1023 Rocket 4.3 20:29:45 15° SSW 20:33:56 82° ESE 20:39:03 10° NNE
Terra 2.5 20:33:16 35° E 20:34:07 38° ENE 20:38:30 10° N
Cosmos 1633 3.0 20:31:02 10° NNW 20:34:34 56° W 20:35:24 43° SW
Cosmos 1954 Rocket 4.2 20:34:30 42° ESE 20:35:00 44° ESE 20:39:53 10° NE
Cosmos 2344 4.0 20:29:49 10° WSW 20:37:10 63° NW 20:45:15 10° NE
Meteor 2-3 Rocket 3.7 20:32:22 10° NNW 20:38:10 87° W 20:40:44 35° S
Cosmos-2242 2.9 20:37:39 43° S 20:39:03 89° ENE 20:43:23 10° N
Meteor 1-4 Rocket 4.0 20:41:49 26° NE 20:41:49 26° NE 20:43:43 10° NNE
Cosmos 1140 Rocket 3.3 20:36:41 16° SSW 20:40:48 89° ESE 20:45:58 10° NNE
Meteor 1-27 4.2 20:39:31 36° SSE 20:41:53 68° E 20:47:40 10° NNE
Cosmos 2219 Rocket 4.4 20:38:26 10° WNW 20:42:15 19° W 20:46:02 10° SW
Timation 2 Rocket 3.9 20:37:35 10° SSW 20:44:09 75° ESE 20:50:29 10° NNE
Meteor 2-16 Rocket 4.4 20:38:13 10° N 20:44:24 89° ENE 20:47:07 36° S
USA 245 3.5 20:44:18 50° SW 20:44:55 59° WSW 20:48:14 10° NNW
Cosmos 1408 Rocket 4.4 20:41:39 10° N 20:45:27 34° ENE 20:45:27 34° ENE
Spot 2 Rocket 3.5 20:44:16 42° S 20:46:03 80° WSW 20:51:10 10° NNW
Cosmos 2151 3.9 20:48:31 10° NNW 20:52:37 44° W 20:54:06 31° SW
BREEZE-M (TANK) 4.4 20:44:01 10° WNW 20:58:13 40° SW 20:59:58 32° SSW
Cosmos 2221 3.7 21:05:30 30° NE 21:05:30 30° NE 21:08:11 10° NNE
Cosmos 468 Rocket 4.1 21:00:04 10° NNW 21:05:08 57° ENE 21:05:40 54° E
Lacrosse 5 rocket 3.5 21:01:59 10° NW 21:05:30 24° N 21:08:08 15° NE
BREEZE M DEB (TANK) 2.6 21:04:31 10° W 21:09:52 62° NW 21:09:52 62° NW
Cosmos 1869 3.5 21:11:03 70° NW 21:11:03 70° NW 21:14:43 10° N
Cosmos 2237 Rocket 3.4 21:06:08 10° NW 21:11:09 34° WSW 21:13:12 26° SW
Cosmos 841 Rocket 4.5 21:07:22 10° N 21:12:06 33° ENE 21:12:38 32° ENE
Resurs 01 Rocket 4.1 21:13:45 10° SW 21:16:30 16° W 21:19:14 10° NW
Meteor 2-2 Rocket 4.3 21:17:29 58° ESE 21:17:46 59° E 21:23:22 10° NNE
Cosmos 1553 Rocket 4.2 21:19:14 49° E 21:19:29 49° E 21:25:19 10° NNE
CRYOSAT 2 4.3 21:19:30 75° E 21:19:31 75° E 21:24:27 10° N
Okean 3 Rocket 4.0 21:15:28 10° NNW 21:19:56 56° W 21:20:14 55° WSW
Cosmos 1766 Rocket 4.0 21:16:36 10° NNW 21:20:50 54° W 21:20:58 53° WSW
Cosmos 1500 Rocket 4.4 21:16:57 10° N 21:20:32 41° NE 21:20:32 41° NE
CARTOSAT-1 4.5 21:20:55 39° WSW 21:21:20 40° W 21:25:26 10° NNW
COSMOS 2455 2.7 21:20:46 58° S 21:21:54 74° ESE 21:27:56 10° NE
Cosmos 1763 Rocket 3.3 21:18:03 10° NNW 21:23:09 76° ENE 21:23:15 76° E
Cosmos 2263 Rocket 3.7 21:25:51 22° ENE 21:25:51 22° ENE 21:28:24 10° NE
Cosmos 2082 3.5 21:24:17 69° S 21:24:59 82° ESE 21:30:38 10° NNE
Meteor 2-15 4.3 21:25:34 58° S 21:26:52 89° E 21:32:58 10° N
Cosmos 2227 Rocket 2.8 21:21:56 12° SW 21:27:06 56° WNW 21:32:41 10° NNE
Cosmos 676 Rocket 4.2 21:30:06 46° SW 21:31:30 66° WNW 21:36:40 10° NNE
Cosmos 2297 Rocket 3.4 21:29:11 10° WSW 21:34:29 41° NW 21:39:50 10° NNE
Cosmos 1603 4.3 21:30:49 10° NNW 21:36:18 44° NE 21:36:56 42° ENE
Cosmos 44 Rocket 3.7 21:37:25 59° NE 21:37:25 59° NE 21:41:40 10° NE
Timation 1 Rocket 4.3 21:35:59 48° SW 21:37:46 81° WNW 21:43:46 10° NNE
Cosmos 2219 4.3 21:33:34 10° SW 21:38:50 41° NW 21:44:10 10° NNE
Cosmos 540 Rocket 3.7 21:34:38 10° NNW 21:39:29 58° NE 21:39:29 58° NE
NOSS 3-1 (C) 4.0 21:34:55 10° NW 21:42:20 80° NE 21:44:44 51° SE
USA 215 3.9 21:48:19 38° SW 21:48:49 38° SW 21:54:52 10° WNW
ERS-1 Rocket 4.3 21:54:27 29° WSW 21:55:01 30° W 21:59:26 10° NNW
Cosmos 1570 Rocket 4.5 21:50:17 10° NNW 21:55:11 52° NE 21:55:11 52° NE
SL-16 R/B 3.2 22:00:55 10° NW 22:06:01 35° WSW 22:06:06 35° WSW
Terra 3.3 22:12:08 28° W 22:12:08 28° W 22:16:02 10° NW
Cosmos 1741 Rocket 4.2 22:12:52 69° NNW 22:12:52 69° NNW 22:17:38 10° NNE
Cosmos 921 Rocket 4.2 22:10:36 10° NNW 22:13:36 42° NNW 22:13:36 42° NNW
Cosmos 1850 Rocket 4.3 22:17:41 64° NW 22:17:41 64° NW 22:22:29 10° NNE
Meteor 1-20 Rocket 4.4 22:13:35 10° N 22:18:59 65° NE 22:18:59 65° NE
Cosmos 1745 Rocket 3.9 22:15:25 10° NNW 22:21:44 74° W 22:21:55 74° WSW
SeaSat 1 3.0 22:17:21 10° NNE 22:21:10 54° NNE 22:21:10 54° NNE
Cosmos 1709 Rocket 3.9 22:21:11 10° N 22:27:15 74° ENE 22:27:15 74° ENE
Cosmos 2208 Rocket 4.4 22:26:19 10° NNW 22:30:49 63° NNW 22:30:49 63° NNW
Aureole 1 Rocket 3.9 22:33:07 61° NW 22:33:07 61° NW 22:37:27 10° NNE
S3M 4.1 22:34:13 68° WSW 22:34:34 70° W 22:41:00 10° N
Cosmos 1943 3.4 22:29:23 10° NNW 22:34:14 65° NW 22:34:14 65° NW
Cosmos 883 Rocket 4.4 22:38:48 81° NE 22:38:48 81° NE 22:44:49 10° N
USA 281 4.1 22:42:09 35° E 22:43:49 41° NE 22:49:54 10° NNW
Lacrosse 5 rocket 3.1 22:41:09 10° NW 22:43:43 32° NNW 22:43:43 32° NNW
USA 229 DEB 3.8 22:42:39 10° NW 22:49:55 68° SW 22:50:01 68° SW
USA 229 3.8 22:42:44 10° NW 22:50:01 68° SW 22:50:07 68° SW
Cosmos 2263 Rocket 2.8 23:07:30 51° NW 23:07:30 51° NW 23:12:49 10° NNE
NOSS 3-1 (A) 4.1 23:00:22 10° NW 23:07:49 61° WSW 23:07:58 61° SW
ALOS 2 4.3 23:10:42 30° NW 23:10:42 30° NW 23:13:07 10° NNW
Meteor 1-14 Rocket 4.5 23:11:56 10° NNW 23:17:17 72° NNW 23:17:17 72° NNW
Cosmos 1844 Rocket 3.6 23:22:25 39° ENE 23:22:25 39° ENE 23:26:13 10° NE
Cosmos 2154 Rocket 4.3 23:21:44 10° N 23:28:01 57° ENE 23:28:04 57° ENE
Cosmos 2184 Rocket 4.0 23:33:23 10° N 23:39:21 78° NW 23:39:21 78° NW
NOSS 2-2 (C) 4.5 23:35:26 10° NW 23:40:17 74° N 23:40:17 74° N
Cosmos 1833 Rocket 4.5 23:39:12 10° N 23:43:58 27° NE 23:46:45 19° E
Resurs 1-4 Rocket 4.2 23:41:45 10° NE 23:44:51 17° E 23:44:51 17° E
